loading
|

THOR ABLESTAR DEB, 337

Orbit data source: Space-Track

THOR ABLESTAR DEB, 337 is space debris in LEO originally from a launch on Thu, 29 Jun 1961 UTC launched from the Air Force Eastern Test Range (AFETR). Debris objects in space refer to the collection of defunct objects orbiting the Earth. Examples of debris include non-operational satellites, rocket bodies, and fragments generated from explosions, collisions, or faulty payload assembly.

Loading next visibility...
Loading greatness...
THOR ABLESTAR DEB details
Identifier
337, 1961-015DP
Orbit
LEO
Last TLE update1 day ago
Origin
Flag of USUSAF SSD (US)
ManufacturerUnknown
Mission statusUnknown
MissionUnknown
Bus & MotorUnknown
MassUnknown
Launch date (UTC)
1961-06-29 (63 years ago)
Launch vehicleUnknown
Launch site
Air Force Eastern Test Range (AFETR)
Object type
Payload
Rocket body
Debris
Radar Cross SectionSmall (<0.1 m²)

Expand to show TLE details & history

TLE from 1 day ago
0 THOR ABLESTAR DEB
1 00337U 61015DP  24250.60306801  .00000819  00000-0  89065-3 0  9992
2 00337  67.0110  13.9936 0100205   3.1975 356.9715 13.75596287155543
Epoch: 2024-09-06T14:28Z
Definitive object data (Epoch: 2024-09-06T14:28:25.076Z)
Latitude-0.00007°
Longitude170.71585°
Altitude907.994 km
Speed7.435 km/s
True Right ascension00h 55m 58s
True Declination0° 00' 00"
Sunlit
Object was in full shadow at TLE epoch
Predictive object data (real-time)
Latitude-17.41183°
Longitude-4.34501°
Altitude1,056.164 km
Speed7.288 km/s
Apparent Right ascension16h 09m 12s
Apparent Declination-47° 57' 27"
Sunlit
Object is in daylight
Predictive observer data (real-time)
Local Sidereal Time09:45:24
Azimuth128.248° SE
Elevation-31.99°
Doppler factor1
Orbital elements
Apogee1,051.64 km
Perigee904.218 km
Semi-major axis7,356.066 km
Eccentricity0.0100205
Inclination67.011°
RAAN13.9936°
Arg. of periapsis3.1975°
True anomaly356.91007°
Mean anomaly356.9715°
Eccentric anomaly356.94086°
Mean motion3.44013 °/min
BSTAR0.00089065
Period104.65 mins
No data available

THOR ABLESTAR DEB Visibility forecast

Observer location: 39.9160978°, -105.1181434

THOR ABLESTAR DEB is not visible in the next 10 days
Span
Click to sort rows by Start time (UTC) header in descending order
Start Az.
Max El. time (UTC)
Max El. Az.
Max El.
End time (UTC)
End Az.